Location: Baix
(44.7118°N, 4.7648°E)
Time: 08:38:16
(UTC+00:00)

A-11 Canister half - Pass Details

Date: 26 November 2020
Orbit: 1517 x 1683 km, 47.2° (Epoch: 22 January)

Event Time Altitude Azimuth Distance (km) Brightness Sun altitude
Rises 17:49:20 0° 293° (WNW) 4,929 12.6 -18.3°
Reaches altitude 10° 17:52:33 10° 290° (WNW) 3,946 12.0 -18.8°
Maximum altitude 18:02:27 60° 214° (SW) 1,874 9.6 -20.6°
Drops below altitude 10° 18:12:16 10° 138° (SE) 3,901 10.8 -22.3°
Enters shadow 18:13:25 - 136° (SE) 4,254 11.0 -22.5°
